Regional Weather Roundup
Issued by NWS

Home | Current Version | Previous Version | Text Only | Print | Product List | Glossary Off
Versions: 1 2 3 4 5 6 7 8 9 10 11 12 13 14 15 16 17 18 19 20 21 22 23 24 25 26 27 28 29 30 31 32 33 34 35 36 37 38 39 40 41 42 43 44 45 46 47 48 49 50

000
ASUS43 KMPX 241001
RWRMN
WEATHER ROUNDUP FOR MINNESOTA
NATIONAL WEATHER SERVICE TWIN CITIES/CHANHASSEN MN
400 AM CST FRI NOV 24 2017


NOTE: "FAIR" INDICATES FEW OR NO CLOUDS BELOW 12,000 FEET WITH NO
SIGNIFICANT WEATHER AND/OR OBSTRUCTIONS TO VISIBILITY. N/A MEANS
CURRENT SKY AND/OR WEATHER CONDITIONS ARE NOT AVAILABLE.

MNZ060>063-068>070-241100-
   Twin Cities Metro

CITY           SKY/WX    TMP DP  RH WIND       PRES   REMARKS
TWIN CITIES    PTCLDY    47  38  71 S6        29.45F
ST PAUL        CLEAR     42  36  79 SE8       29.47F
CRYSTAL        CLEAR     45  33  63 S8        29.43F
BLAINE         CLEAR     46  37  71 S12       29.43F
LAKEVILLE      CLEAR     46  37  71 SW7       29.46F
EDEN PRAIRIE   CLEAR     45  36  70 S10       29.44F
SOUTH ST PAUL  CLEAR     44  35  69 S5        29.46F
LAKE ELMO      FAIR      45  36  70 S12       29.46F
$$
MNZ001>005-007-008-013>017-022>024-027-028-241100-
   Northwest Minnesota

CITY           SKY/WX    TMP DP  RH WIND       PRES   REMARKS
BEMIDJI        LGT RAIN  40  35  82 S6        29.26F
HALLOCK        PTCLDY    36  34  93 SW5       29.24R
ROSEAU         PTCLDY    43  37  81 SW8       29.21S
WARROAD        MOCLDY    45  37  76 SW12      29.20S
CROOKSTON      CLOUDY    39  36  87 SE6       29.27F
FOSSTON        LGT RAIN  39  36  87 S8        29.29S
DETROIT LAKES  CLOUDY    46  37  71 SW5       29.31F
MOORHEAD       PTCLDY    43  36  75 CALM      29.30F
PARK RAPIDS    CLOUDY    37  34  89 SW5       29.29F
MAHNOMEN       CLOUDY    42  36  81 S8        29.28F
$$
MNZ006-009>011-018-025>026-241100-
   North Central Minnesota

CITY           SKY/WX    TMP DP  RH WIND       PRES   REMARKS
BAUDETTE       CLOUDY    45  36  70 W9        29.18S
FLAG ISLAND    CLOUDY    43  36  75 W10       29.16S
INTL FALLS     PTCLDY    42  34  73 SW7       29.18F
WASKISH        MOCLDY    46  37  71 SW12G20   29.22F
BIG FORK       CLOUDY    37  34  87 S6        29.23F
LONGVILLE      PTCLDY    41  36  81 S5        29.29F
GRAND RAPIDS   PTCLDY    41  34  76 S8        29.30F
CRANE LAKE     MOCLDY    41  34  75 S8        29.20F
ORR            PTCLDY    39  30  70 S9G16     29.19F
COOK           CLOUDY    39  34  81 SW7       29.24F
WALKER         PTSUNNY   46  36  69 SW6       29.28S
$$
MNZ012-019>021-037-241100-
   Northeast Minnesota

CITY           SKY/WX    TMP DP  RH WIND       PRES   REMARKS
DULUTH         CLOUDY    39  33  79 SW17      29.31F
ELY            CLOUDY    37  30  75 SW8       29.25F
HIBBING        CLOUDY    37  32  82 CALM      29.29F
EVELETH        CLOUDY    37  30  75 SW7       29.29F
DULUTH HARBOR  CLOUDY    43  36  75 SW13      29.33F
TWO HARBORS    CLOUDY    39  34  81 SW6       29.29F
SILVER BAY     CLOUDY    37  32  81 SW5       29.28F
GRAND MARAIS     N/A     37  31  78 W5        29.27F
G MARAIS ARPRT CLOUDY    34  25  69 SW6       29.24F WCI  29
$$
MNZ029>031-032-039>041-046>048-054>057-064-241100-
   West Central Minnesota

CITY           SKY/WX    TMP DP  RH WIND       PRES   REMARKS
FERGUS FALLS   CLOUDY    39  34  81 S8        29.35F
WHEATON        CLEAR     48  36  61 SW9       29.34F
MORRIS         CLEAR     43  36  75 S7        29.35F
ALEXANDRIA     CLEAR     45  37  73 SW12      29.36F
ELBOW LAKE     FAIR      38  35  88 S13       29.34F
WADENA         CLEAR     41  36  81 S3        29.32F
GLENWOOD       CLEAR     37  36  93 SW12      29.38F
APPLETON       CLEAR     48  37  66 SW8       29.37F
BENSON         CLEAR     39  34  81 S5        29.39F
ORTONVILLE     CLEAR     48  37  66 NW3       29.36F
MADISON        CLEAR     50  39  66 SW9       29.38F
WILLMAR        FAIR      39  36  87 CALM      29.42F
$$
MNZ033>034-036-042>043-049>051-058-059-241100-
   Central Minnesota

CITY           SKY/WX    TMP DP  RH WIND       PRES   REMARKS
ST CLOUD       CLEAR     37  34  89 S8        29.39F
SAUK CENTRE    FAIR      41  36  82 SW7       29.38F
PAYNESVILLE    CLEAR     43  38  81 SW7       29.40F
AITKIN         PTCLDY    41  36  81 S6        29.31F
PINE RIVER     CLEAR     30  27  86 CALM      29.36F
BRAINERD       CLEAR     42  35  76 S10       29.33F
STAPLES        CLEAR     43  36  75 S8        29.32F
LONG PRAIRIE   FAIR      36  34  93 S8        29.36F
LITTLE FALLS   CLEAR     37  32  81 S5        29.36F
LITCHFIELD     CLEAR     43  37  81 S5        29.41F
BUFFALO        CLEAR     41  34  75 S6        29.44F
MAPLE LAKE     CLEAR     41  36  81 S6        29.43F
HUTCHINSON     PTCLDY    38  34  88 S3        29.44F
$$
MNZ037-044-045-052-053-241100-
   East Central Minnesota

CITY           SKY/WX    TMP DP  RH WIND       PRES   REMARKS
PRINCETON      CLEAR     45  36  70 S7        29.40F
MORA           CLEAR     36  32  87 CALM      29.41F
CAMBRIDGE      CLEAR     45  34  65 S8        29.40F
RUSH CITY      CLEAR     41  33  74 S7        29.40F
MOOSE LAKE     PTCLDY    37  32  81 S6        29.34F
HINCKLEY       FAIR      36  32  87 S6        29.39F
CLOQUET        CLOUDY    39  30  70 SW15G21   29.32F
MCGREGOR       PTCLDY    41  34  75 S9        29.33F
$$
MNZ071>073-080-081-089-090-097-098-241100-
   Southwest Minnesota

CITY           SKY/WX    TMP DP  RH WIND       PRES   REMARKS
MONTEVIDEO     CLEAR     46  37  71 SW8       29.39F
GRANITE FALLS  CLEAR     48  40  72 S9        29.42F
CANBY          CLEAR     54  39  57 SW14G20   29.41F
MARSHALL       CLEAR     54  40  59 SW21      29.42F
REDWOOD FALLS  CLEAR     46  37  71 SW12      29.42F
OLIVIA         CLEAR     43  36  75 S7        29.41F
PIPESTONE      CLEAR     43  37  81 S5        29.47F
WINDOM         CLEAR     46  30  53 S10       29.48F
WORTHINGTON    CLEAR     47  38  71 SW17      29.49F
JACKSON        CLEAR     45  37  76 S10       29.50F
SLAYTON        CLEAR     46  39  75 S17       29.48F
$$
MNZ065>067-074>077-082>085-091>093-241100-
   South Central Minnesota

CITY           SKY/WX    TMP DP  RH WIND       PRES   REMARKS
MANKATO        CLEAR     42  35  76 S9        29.48F
NEW ULM        CLEAR     45  37  76 CALM      29.45F
ST JAMES       CLEAR     45  37  76 S12       29.48F
GLENCOE        CLEAR     40  35  82 S7        29.44F
FARIBAULT      CLEAR     45  37  76 S8        29.50F
OWATONNA       CLEAR     46  37  71 S13       29.51F
WASECA         CLEAR     45  36  70 S13       29.52F
ALBERT LEA     CLEAR     50  36  57 SW12      29.52F
$$
MNZ078>079-086>088-094>096-241100-
   Southeast Minnesota

CITY           SKY/WX    TMP DP  RH WIND       PRES   REMARKS
ROCHESTER      CLEAR     44  35  70 S18       29.53F
RED WING       CLEAR     46  32  57 S5        29.49F
STANTON        CLEAR     46  37  71 S6        29.47F
DODGE CENTER   CLEAR     43  34  70 S15G21    29.52F
WINONA         CLEAR     48  36  61 SW6       29.55F
PRESTON        CLEAR     44  33  66 SW16G23   29.56F
$$
ABBREVIATIONS USED IN REMARKS
   TC - TEMPERATURES IN CELSIUS
  WCI - WIND CHILL INDEX
   HX - HEAT INDEX
  VSB - VISIBILITY
$$




USA.gov is the U.S. government's official web portal to all federal, state and local government web resources and services.